Weather History for KINK - March, 2014

Change the Weather History Date:

Saturday, March 15, 2014

  Actual Average Record
Temperature  
Mean Temperature 66 °F -  
Max Temperature 78 °F 71 °F 96 °F (2007)
Min Temperature 55 °F 39 °F 25 °F (1964)
Cooling Degree Days 1    
Growing Degree Days 16 (Base 50)    
Moisture  
Dew Point 31 °F    
Average Humidity 31    
Maximum Humidity 49    
Minimum Humidity 13    
Precipitation  
Precipitation 0.00 in - - ()
Sea Level Pressure  
Sea Level Pressure 29.75 in    
Wind  
Wind Speed 12 mph (WNW)    
Max Wind Speed 26 mph    
Max Gust Speed 38 mph    
Visibility 10 miles    
Events Rain    
Averages and records for this station are not official NWS values.
T = Trace of Precipitation, MM = Missing Value Source: NWS Daily Summary

Daily Weather History Graph

Daily Weather History Graph

Search for Another Location

Airport or City:

Trip Planner

Search our weather history database for the weather conditions in past years. The results will help you decide how hot, cold, wet, or windy it might be!

Date:

Astronomy

Mar. 15, 2014 Rise Set
Actual Time 8:02 AM CDT 8:00 PM CDT
Civil Twilight 7:38 AM CDT 8:25 PM CDT
Nautical Twilight 7:10 AM CDT 8:53 PM CDT
Astronomical Twilight 6:41 AM CDT 9:22 PM CDT
Moon 7:22 PM CDT (3/15) 7:13 AM CDT (3/15)
Length of Visible Light 12h 46m
Length of Day
11h 58m
Waxing Gibbous, 99% of the Moon is Illuminated
Mar 15
Waxing Gibbous
Mar 16
Full
Mar 23
Last Quarter
Mar 30
New
Apr 7
First Quarter

Hourly Weather History & Observations

Time (CDT) Temp. Dew Point Humidity Pressure Visibility Wind Dir Wind Speed Gust Speed Precip Events Conditions
12:53 AM 60.1 °F 32.0 °F 35% 29.82 in 10.0 mi SSE 6.9 mph - N/A   Scattered Clouds
1:53 AM 61.0 °F 37.9 °F 42% 29.83 in 10.0 mi South 11.5 mph - 0.00 in Rain Light Rain
2:53 AM 61.0 °F 36.0 °F 39% 29.81 in 10.0 mi SE 5.8 mph - 0.00 in   Mostly Cloudy
3:53 AM 57.0 °F 36.0 °F 45% 29.79 in 10.0 mi NNW 6.9 mph - N/A   Scattered Clouds
4:53 AM 57.9 °F 36.0 °F 44% 29.79 in 10.0 mi Calm Calm - N/A   Overcast
5:53 AM 55.9 °F 36.0 °F 47% 29.79 in 10.0 mi Calm Calm - 0.00 in Rain Light Rain
6:53 AM 57.0 °F 35.1 °F 44% 29.79 in 10.0 mi NNW 4.6 mph - 0.00 in   Overcast
7:53 AM 57.9 °F 36.0 °F 44% 29.80 in 10.0 mi NNW 4.6 mph - N/A   Overcast
8:53 AM 57.9 °F 36.0 °F 44% 29.81 in 10.0 mi WSW 6.9 mph - N/A   Partly Cloudy
9:53 AM 63.0 °F 34.0 °F 34% 29.81 in 10.0 mi WSW 13.8 mph - N/A   Clear
10:53 AM 66.0 °F 33.1 °F 29% 29.79 in 10.0 mi West 20.7 mph 29.9 mph N/A   Clear
11:53 AM 69.1 °F 30.9 °F 24% 29.78 in 10.0 mi West 23.0 mph 31.1 mph N/A   Clear
12:53 PM 71.1 °F 33.1 °F 25% 29.75 in 10.0 mi West 24.2 mph 29.9 mph N/A   Partly Cloudy
1:53 PM 73.0 °F 30.0 °F 20% 29.71 in 10.0 mi WNW 19.6 mph 31.1 mph N/A   Partly Cloudy
2:53 PM 75.0 °F 28.0 °F 18% 29.66 in 10.0 mi WNW 20.7 mph 31.1 mph N/A   Mostly Cloudy
3:53 PM 77.0 °F 27.0 °F 16% 29.63 in 10.0 mi West 17.3 mph 33.4 mph N/A   Mostly Cloudy
4:53 PM 73.0 °F 30.0 °F 20% 29.63 in 10.0 mi NW 10.4 mph - 0.00 in   Mostly Cloudy
5:53 PM 73.9 °F 25.0 °F 16% 29.62 in 10.0 mi WNW 15.0 mph - N/A   Mostly Cloudy
6:02 PM 73.9 °F 19.9 °F 13% 29.72 in 10.0 mi NW 26.5 mph 38.0 mph N/A   Mostly Cloudy
6:53 PM 72.0 °F 21.0 °F 15% 29.65 in 10.0 mi NNW 20.7 mph - 0.00 in   Mostly Cloudy
7:53 PM 66.0 °F 32.0 °F 28% 29.69 in 10.0 mi NW 26.5 mph 38.0 mph 0.00 in   Overcast
8:19 PM 66.0 °F 28.9 °F 25% 29.78 in 10.0 mi WNW 17.3 mph - N/A   Mostly Cloudy
8:53 PM 66.9 °F 25.0 °F 21% 29.71 in 10.0 mi NW 19.6 mph - N/A   Clear
9:53 PM 63.0 °F 30.9 °F 30% 29.75 in 10.0 mi NNW 23.0 mph 33.4 mph N/A   Partly Cloudy
10:53 PM 62.1 °F 30.9 °F 31% 29.78 in 10.0 mi North 20.7 mph 32.2 mph N/A   Clear
11:53 PM 57.0 °F 37.9 °F 49% 29.82 in 10.0 mi NNE 26.5 mph 38.0 mph N/A   Partly Cloudy